User: anonymous   Login
Location: Kerguer�zec
(48.4509°N, 4.7600°W)
Time: 13:35:01
(UTC+00:00)
Language:

Cosmos 2151 - Orbit

View from above orbital plane
View from above orbital plane
View from above satellite
View from above satellite

Ground track
Ground track

The orbit data is extracted from the following two-line orbital elements,

1 21422U 91042A   20188.70458547 +.00000124 +00000-0 +96295-5 0  9999
2 21422 082.5009 264.6126 0014653 162.8685 197.3032 14.92139488553758
Epoch (UTC): 06 July 2020 16:54:36
Eccentricity: 0.0014653
inclination: 82.5009°
perigee height: 581 km
apogee height: 601 km
right ascension of ascending node: 264.6126°
argument of perigee: 162.8685°
revolutions per day: 14.92139488
mean anomaly at epoch: 197.3032°
orbit number at epoch: 55375

The dashed part of the orbit path shows where the satellite is in the earth's shadow,  

DLR